TimePDT,TemperatureF,Dew PointF,Humidity,Sea Level PressureIn,VisibilityMPH,Wind Direction,Wind SpeedMPH,Gust SpeedMPH,PrecipitationIn,Events,Conditions,WindDirDegrees,DateUTC
12:53 AM,68.0,37.9,33,29.92,10.0,NW,13.8,-,N/A,,Clear,320,2013-05-31 07:53:00
1:53 AM,64.9,37.9,37,29.92,10.0,NNW,10.4,-,N/A,,Clear,330,2013-05-31 08:53:00
2:53 AM,64.0,35.1,34,29.91,10.0,NNW,11.5,-,N/A,,Clear,330,2013-05-31 09:53:00
3:53 AM,64.0,33.1,31,29.91,10.0,NNW,5.8,-,N/A,,Clear,330,2013-05-31 10:53:00
4:53 AM,60.1,37.9,44,29.92,10.0,NNW,4.6,-,N/A,,Clear,340,2013-05-31 11:53:00
5:53 AM,60.1,39.0,46,29.94,10.0,NNW,4.6,-,N/A,,Clear,340,2013-05-31 12:53:00
6:53 AM,61.0,39.9,46,29.95,10.0,Calm,Calm,-,N/A,,Clear,0,2013-05-31 13:53:00
7:53 AM,66.0,43.0,43,29.97,10.0,NW,11.5,-,N/A,,Clear,320,2013-05-31 14:53:00
8:53 AM,70.0,45.0,41,29.98,10.0,NNW,12.7,-,N/A,,Clear,330,2013-05-31 15:53:00
9:53 AM,73.0,46.0,38,29.98,10.0,NW,11.5,-,N/A,,Clear,320,2013-05-31 16:53:00
10:53 AM,77.0,46.9,34,29.98,10.0,NW,6.9,-,N/A,,Clear,320,2013-05-31 17:53:00
11:53 AM,80.1,48.0,32,29.97,10.0,Variable,5.8,-,N/A,,Clear,0,2013-05-31 18:53:00
12:53 PM,82.9,48.0,29,29.95,10.0,NNW,8.1,-,N/A,,Clear,330,2013-05-31 19:53:00
1:53 PM,86.0,48.0,27,29.94,10.0,NNW,6.9,-,N/A,,Clear,330,2013-05-31 20:53:00
2:53 PM,89.1,46.9,23,29.91,10.0,West,10.4,-,N/A,,Clear,280,2013-05-31 21:53:00
3:53 PM,90.0,42.1,19,29.89,10.0,NNW,12.7,18.4,N/A,,Clear,330,2013-05-31 22:53:00
4:53 PM,91.0,39.9,17,29.88,10.0,NW,11.5,-,N/A,,Clear,310,2013-05-31 23:53:00
5:42 PM,91.4,37.4,15,29.87,10.0,North,9.2,17.3,N/A,,Partly Cloudy,350,2013-06-01 00:42:00
5:53 PM,90.0,37.9,16,29.87,10.0,North,10.4,-,N/A,,Clear,350,2013-06-01 00:53:00
6:53 PM,89.1,37.0,16,29.87,10.0,NNW,12.7,-,N/A,,Clear,330,2013-06-01 01:53:00
7:53 PM,84.9,39.0,20,29.88,10.0,NW,8.1,-,N/A,,Clear,310,2013-06-01 02:53:00
8:53 PM,81.0,41.0,24,29.88,10.0,NW,5.8,20.7,N/A,,Clear,310,2013-06-01 03:53:00
9:53 PM,77.0,44.1,31,29.89,10.0,NW,4.6,-,N/A,,Clear,310,2013-06-01 04:53:00
10:53 PM,73.9,45.0,35,29.90,10.0,NW,3.5,-,N/A,,Clear,310,2013-06-01 05:53:00
11:53 PM,73.0,45.0,37,29.90,10.0,Calm,Calm,-,N/A,,Clear,0,2013-06-01 06:53:00